Weather History for KMRN - May, 2013

Change the Weather History Date:

Monday, May 13, 2013

  Actual Average (KHKY) Record (KHKY)
Temperature  
Mean Temperature 50 °F -  
Max Temperature 66 °F 76 °F 92 °F (1956)
Min Temperature 33 °F 54 °F 35 °F (1960)
Degree Days  
Heating Degree Days 16    
Moisture  
Dew Point 31 °F    
Average Humidity 54    
Maximum Humidity 100    
Minimum Humidity 18    
Precipitation  
Precipitation 0.00 in - - ()
Sea Level Pressure  
Sea Level Pressure 30.17 in    
Wind  
Wind Speed 4 mph (WNW)    
Max Wind Speed 13 mph    
Max Gust Speed 22 mph    
Visibility 10 miles    
Events      
Averages and records for this station are not official NWS values.
T = Trace of Precipitation, MM = Missing Value Source: NWS Daily Summary

Daily Weather History Graph

Daily Weather History Graph

Search for Another Location

Airport or City:

Trip Planner

Search our weather history database for the weather conditions in past years. The results will help you decide how hot, cold, wet, or windy it might be!

Date:

Astronomy

May. 13, 2013 Rise Set
Actual Time 6:22 AM EDT 8:23 PM EDT
Civil Twilight 5:54 AM EDT 8:51 PM EDT
Nautical Twilight 5:19 AM EDT 9:26 PM EDT
Astronomical Twilight 4:42 AM EDT 10:03 PM EDT
Moon 9:07 AM EDT (5/13) 11:31 PM EDT (5/13)
Length of Visible Light 14h 57m
Length of Day
14h 01m
Waxing Crescent, 12% of the Moon is Illuminated
May 13
Waxing Crescent
May 18
First Quarter
May 25
Full
May 31
Last Quarter
Jun 8
New

Hourly Weather History & Observations

Time (EDT) Temp. Windchill Dew Point Humidity Pressure Visibility Wind Dir Wind Speed Gust Speed Precip Events Conditions
12:15 AM 53.4 °F - 31.1 °F 43% 30.12 in 10.0 mi WNW 4.6 mph - N/A   Clear
12:35 AM 53.6 °F - 30.6 °F 41% 30.12 in 10.0 mi WNW 5.8 mph - N/A   Clear
12:55 AM 52.9 °F - 30.7 °F 43% 30.12 in 10.0 mi NW 6.9 mph - N/A   Clear
1:15 AM 52.3 °F - 30.7 °F 44% 30.12 in 10.0 mi NW 6.9 mph - N/A   Clear
1:35 AM 51.8 °F - 31.1 °F 45% 30.12 in 10.0 mi NW 5.8 mph - N/A   Clear
1:55 AM 47.7 °F - 34.5 °F 60% 30.12 in 10.0 mi Calm Calm - N/A   Clear
2:15 AM 41.4 °F - 37.4 °F 86% 30.12 in 10.0 mi Calm Calm - N/A   Clear
2:35 AM 39.7 °F - 37.4 °F 91% 30.12 in 10.0 mi Calm Calm - N/A   Clear
2:55 AM 38.5 °F - 36.9 °F 94% 30.12 in 10.0 mi Calm Calm - N/A   Clear
3:15 AM 37.4 °F - 35.6 °F 93% 30.13 in 10.0 mi Calm Calm - N/A   Clear
3:35 AM 37.9 °F - 36.7 °F 95% 30.13 in 10.0 mi Calm Calm - N/A   Clear
3:55 AM 36.1 °F - 35.1 °F 96% 30.14 in 10.0 mi Calm Calm - N/A   Clear
4:15 AM 36.7 °F - 35.8 °F 97% 30.14 in 10.0 mi Calm Calm - N/A   Clear
4:35 AM 35.1 °F - 34.2 °F 97% 30.15 in 10.0 mi Calm Calm - N/A   Clear
4:55 AM 34.5 °F - 33.6 °F 97% 30.15 in 10.0 mi Calm Calm - N/A   Clear
5:15 AM 34.7 °F - 34.0 °F 97% 30.16 in 10.0 mi Calm Calm - N/A   Clear
5:35 AM 34.9 °F - 34.2 °F 97% 30.16 in 10.0 mi Calm Calm - N/A   Clear
5:55 AM 35.2 °F - 34.5 °F 97% 30.16 in 10.0 mi Calm Calm - N/A   Clear
6:15 AM 34.2 °F 31.2 °F 33.6 °F 98% 30.17 in 10.0 mi NNW 3.5 mph - N/A   Clear
6:35 AM 33.8 °F - 33.3 °F 98% 30.17 in 10.0 mi Calm Calm - N/A   Clear
6:55 AM 35.6 °F - 35.6 °F 100% 30.19 in 10.0 mi Calm Calm - N/A   Clear
7:15 AM 38.5 °F - 38.1 °F 99% 30.20 in 10.0 mi Calm Calm - N/A   Clear
7:35 AM 44.4 °F 42.9 °F 38.7 °F 80% 30.20 in 10.0 mi NNW 3.5 mph - N/A   Clear
7:55 AM 46.2 °F - 37.9 °F 73% 30.20 in 10.0 mi Calm Calm - N/A   Clear
8:15 AM 49.5 °F - 35.1 °F 58% 30.21 in 10.0 mi Calm Calm - N/A   Clear
8:35 AM 51.6 °F - 34.5 °F 52% 30.21 in 10.0 mi NNW 4.6 mph - N/A   Clear
8:55 AM 52.3 °F - 35.2 °F 52% 30.22 in 10.0 mi NNW 5.8 mph - N/A   Clear
9:15 AM 53.8 °F - 31.1 °F 42% 30.22 in 10.0 mi North 5.8 mph - N/A   Clear
9:35 AM 54.7 °F - 30.0 °F 39% 30.22 in 10.0 mi NNW 5.8 mph - N/A   Clear
9:55 AM 55.4 °F - 29.3 °F 37% 30.22 in 10.0 mi NW 5.8 mph - N/A   Clear
10:15 AM 55.8 °F - 30.2 °F 38% 30.22 in 10.0 mi WSW 5.8 mph - N/A   Clear
10:35 AM 55.4 °F - 28.9 °F 36% 30.22 in 10.0 mi Calm Calm - N/A   Clear
10:55 AM 56.1 °F - 30.7 °F 38% 30.22 in 10.0 mi Calm Calm - N/A   Clear
11:15 AM 57.0 °F - 30.0 °F 36% 30.22 in 10.0 mi WNW 4.6 mph - N/A   Clear
11:35 AM 57.7 °F - 29.1 °F 34% 30.22 in 10.0 mi Calm Calm - N/A   Clear
11:55 AM 59.7 °F - 29.5 °F 32% 30.21 in 10.0 mi West 3.5 mph - N/A   Clear
12:15 PM 59.5 °F - 28.6 °F 31% 30.21 in 10.0 mi WSW 5.8 mph - N/A   Clear
12:35 PM 61.0 °F - 29.3 °F 30% 30.20 in 10.0 mi WSW 10.4 mph 16.1 mph N/A   Clear
12:55 PM 61.3 °F - 27.1 °F 27% 30.19 in 10.0 mi NW 5.8 mph - N/A   Clear
1:15 PM 62.1 °F - 26.8 °F 26% 30.18 in 10.0 mi WSW 6.9 mph - N/A   Clear
1:35 PM 62.8 °F - 27.3 °F 26% 30.17 in 10.0 mi Calm Calm - N/A   Clear
1:55 PM 63.5 °F - 26.6 °F 25% 30.16 in 10.0 mi WNW 8.1 mph - N/A   Clear
2:15 PM 64.4 °F - 25.0 °F 22% 30.15 in 10.0 mi West 3.5 mph - N/A   Scattered Clouds
2:35 PM 64.4 °F - 23.7 °F 21% 30.15 in 10.0 mi SSE 3.5 mph - N/A   Scattered Clouds
2:55 PM 66.9 °F - 24.4 °F 20% 30.14 in 10.0 mi WSW 9.2 mph - N/A   Scattered Clouds
3:15 PM 65.5 °F - 20.5 °F 18% 30.14 in 10.0 mi West 6.9 mph - N/A   Scattered Clouds
3:35 PM 66.4 °F - 23.5 °F 20% 30.13 in 10.0 mi West 9.2 mph 17.3 mph N/A   Scattered Clouds
4:35 PM 65.5 °F - 22.5 °F 19% 30.12 in 10.0 mi NNW 12.7 mph - N/A   Scattered Clouds
4:55 PM 65.7 °F - 22.8 °F 20% 30.12 in 10.0 mi NNW 11.5 mph - N/A   Clear
5:15 PM 65.5 °F - 22.8 °F 20% 30.12 in 10.0 mi NNW 10.4 mph - N/A   Clear
5:35 PM 65.3 °F - 22.3 °F 19% 30.13 in 10.0 mi NW 12.7 mph 21.9 mph N/A   Clear
5:55 PM 64.6 °F - 23.9 °F 21% 30.13 in 10.0 mi NNW 9.2 mph 17.3 mph N/A   Scattered Clouds
6:15 PM 64.8 °F - 25.3 °F 22% 30.13 in 10.0 mi WNW 10.4 mph - N/A   Scattered Clouds
6:35 PM 63.0 °F - 24.8 °F 23% 30.13 in 10.0 mi WNW 8.1 mph - N/A   Clear
6:55 PM 62.1 °F - 25.0 °F 24% 30.13 in 10.0 mi NW 12.7 mph 17.3 mph N/A   Clear
7:35 PM 61.7 °F - 25.7 °F 25% 30.14 in 10.0 mi West 8.1 mph - N/A   Clear
8:15 PM 59.5 °F - 27.3 °F 29% 30.15 in 10.0 mi West 4.6 mph - N/A   Clear
8:35 PM 57.6 °F - 28.4 °F 33% 30.16 in 10.0 mi West 6.9 mph - N/A   Clear
8:55 PM 57.6 °F - 28.8 °F 33% 30.17 in 10.0 mi Calm Calm - N/A   Clear
9:15 PM 50.0 °F - 37.0 °F 61% 30.18 in 10.0 mi Calm Calm - N/A   Clear
9:35 PM 46.4 °F - 40.1 °F 79% 30.19 in 10.0 mi Calm Calm - N/A   Clear
9:55 PM 43.9 °F - 40.3 °F 87% 30.20 in 10.0 mi Calm Calm - N/A   Clear
10:15 PM 42.8 °F - 39.2 °F 87% 30.21 in 10.0 mi Calm Calm - N/A   Clear
10:35 PM 41.7 °F - 38.1 °F 87% 30.22 in 10.0 mi Calm Calm - N/A   Clear
10:55 PM 41.2 °F 38.2 °F 37.4 °F 86% 30.22 in 10.0 mi NW 4.6 mph - N/A   Clear
11:15 PM 54.9 °F - 29.8 °F 38% 30.23 in 10.0 mi WNW 4.6 mph - N/A   Clear
11:35 PM 49.6 °F - 32.7 °F 52% 30.23 in 10.0 mi WNW 5.8 mph - N/A   Clear
11:55 PM 49.3 °F - 34.5 °F 57% 30.24 in 10.0 mi Calm Calm - N/A   Clear